Regional Weather Roundup
Issued by NWS

Home | Current Version | Previous Version | Graphics & Text | Print | Product List | Glossary On
Versions: 1 2 3 4 5 6 7 8 9 10 11 12 13 14 15 16 17 18 19 20 21 22 23 24 25 26 27 28 29 30 31 32 33 34 35 36 37 38 39 40 41 42 43 44 45 46 47 48 49 50
000
ASUS43 KBIS 181520
RWRND

NORTH DAKOTA REGIONAL WEATHER ROUNDUP
NATIONAL WEATHER SERVICE BISMARCK ND
900 AM CST THU DEC 18 2014

NOTE: "FAIR" INDICATES FEW OR NO CLOUDS BELOW 12,000 FEET WITH NO
SIGNIFICANT WEATHER AND/OR OBSTRUCTIONS TO VISIBILITY.


NDZ001>003-009>011-017-181600-
NORTHWEST NORTH DAKOTA

CITY           SKY/WX    TMP DP  RH WIND       PRES   REMARKS
WILLISTON      CLOUDY    21  17  84 S5        30.00S WCI  15
MINOT          CLOUDY    18  14  84 SE5       30.05S WCI  11
MINOT AFB      CLOUDY    14  14 100 SE6       30.05S WCI   5
$$

NDZ018>021-031>035-040>046-181600-
SOUTHWEST NORTH DAKOTA

CITY           SKY/WX    TMP DP  RH WIND       PRES   REMARKS
BISMARCK       CLOUDY    18  16  92 SE8       30.09S WCI   8
DICKINSON      CLOUDY    22  19  89 S8        29.95S WCI  12
GARRISON         N/A     19  16  88 S8        30.04S WCI   9
HETTINGER ARPT CLOUDY    23  20  88 S6        29.98S WCI  16
$$

NDZ004>008-012>016-024-026-027-054-181600-
NORTHEAST NORTH DAKOTA

CITY           SKY/WX    TMP DP  RH WIND       PRES   REMARKS
GRAND FORKS    CLOUDY     9   6  88 SE7       30.24S WCI  -2
GRND FRKS AFB  PTCLDY     9   8  98 SE5       30.23S WCI   0
DEVILS LAKE    PTCLDY    14   5  67 SE9       30.12S WCI   2
$$

NDZ022-023-025-028>030-036>039-047>053-181600-
SOUTHEAST NORTH DAKOTA

CITY           SKY/WX    TMP DP  RH WIND       PRES   REMARKS
FARGO          MOCLDY    13   8  81 S10       30.25S WCI   0
JAMESTOWN      CLOUDY    16  12  84 SE9       30.14S WCI   4
$$



USA.gov is the U.S. government's official web portal to all federal, state and local government web resources and services.